Location: Apollinopolis Magna
(24.9792°N, 32.8772°E)
Time: 10:50:15
(UTC+00:00)

Cosmos 1503 Rocket - Pass Details

Date: 02 March 2021
Orbit: 753 x 790 km, 74.0° (Epoch: 15 April)

Event Time Altitude Azimuth Distance (km) Brightness Sun altitude
Rises 17:30:33 0° 348° (NNW) 3,207 7.4 -23.3°
Reaches altitude 10° 17:32:56 10° 351° (N) 2,278 6.6 -23.8°
Enters shadow 17:37:38 65° 40° (NE) 826 3.9 -24.9°
